Location: Palomar Mountain Lodge
(33.3110°N, 116.8495°W)
Time: 20:39:12
(UTC-07:00)

ERS-2 - Pass Details

Date: 14 June 2018
Orbit: 498 x 501 km, 98.5° (Epoch: 18 August)

Event Time Altitude Azimuth Distance (km) Brightness Sun altitude
Exits shadow 21:22:41 11° 191° (S) 1,663 4.5 -15.2°
Maximum altitude 21:26:01 38° 260° (W) 775 3.4 -15.7°
Drops below altitude 10° 21:29:28 10° 330° (NNW) 1,707 6.0 -16.3°
Sets 21:31:39 0° 338° (NNW) 2,595 7.0 -16.6°
